Regional Weather Roundup
Issued by NWS

Home | Current Version | Previous Version | Text Only | Print | Product List | Glossary Off
Versions: 1 2 3 4 5 6 7 8 9 10 11 12 13 14 15 16 17 18 19 20 21 22 23 24 25 26 27 28 29 30 31 32 33 34 35 36 37 38 39 40 41 42 43 44 45 46 47 48 49 50

000
ASUS43 KDTX 162010
RWRMI
MICHIGAN HOURLY REGIONAL WEATHER ROUNDUP
NATIONAL WEATHER SERVICE DETROIT/PONTIAC MI
ISSUED BY NATIONAL WEATHER SERVICE GRAND RAPIDS MI
300 PM EST MON JAN 16 2017

NOTE: "FAIR" INDICATES FEW OR NO CLOUDS BELOW 12,000 FEET WITH NO
SIGNIFICANT WEATHER AND/OR OBSTRUCTION TO VISIBILITY.

MIZ047>049-052>055-059>063-066>070-074>076-081>083-162100-
SOUTHEAST LOWER MICHIGAN

CITY           SKY/WX    TMP DP  RH WIND       PRES   REMARKS
ADRIAN         CLOUDY    33  31  92 E7        30.21F FOG     WCI  27
ALMA           LGT SNOW  32  26  78 SE5       30.23F WCI  27
ANN ARBOR      CLOUDY    34  28  79 E5        30.22F HAZE    WCI  30
BAD AXE        CLOUDY    34  18  51 SW3       30.24F
DETROIT        LGT RAIN  36  28  73 SE5       30.25F WCI  32
FLINT          CLOUDY    33  26  75 E5        30.24F WCI  29
GROSSE ILE     LGT RAIN  34  29  82 S5        30.24F WCI  30
HILLSDALE      CLOUDY    32  32 100 E6        30.16F FOG     WCI  26
HOWELL         LGT SNOW  33  29  85 SE5       30.21F WCI  29

CITY           SKY/WX    TMP DP  RH WIND       PRES   REMARKS
JACKSON        CLOUDY    34  28  79 SE7       30.19F WCI  28
LANSING        LGT RAIN  34  27  75 E6        30.22F WCI  29
MASON          LGT RAIN  33  29  88 E3        30.20F
MONROE         MIX PCPN  33  31  94 E5        30.23F WCI  28
MT. CLEMENS    CLOUDY    32  28  86 E5        30.24S WCI  27
PONTIAC        LGT RAIN  32  27  81 SE6       30.22F FOG     WCI  26
PORT HOPE        N/A     35  23  61 SW5       30.22F WCI  31
PORT HURON     CLOUDY    32  28  86 CALM      30.26F
TRI CITIES     CLOUDY    33  22  63 CALM      30.25F
YPSILANTI      CLOUDY    35  30  82 SE5       30.24F HAZE    WCI  31
$$
MIZ043>046-050>051-056>058-064>065-071>073-077>080-162100-
SOUTHWEST LOWER MICHIGAN

CITY           SKY/WX    TMP DP  RH WIND       PRES   REMARKS
BATTLE CREEK   RAIN      35  34  96 E6        30.16F FOG     WCI  30
BENTON HARBOR  MIX PCPN  36  34  92 E7        30.13F FOG     WCI  30
BIG RAPIDS     MIX PCPN  34  18  52 CALM      30.19F
COLDWATER      CLOUDY    36  36  99 SE7       30.16F FOG     WCI  31
HOLLAND        LGT RAIN  34  30  85 E8        30.17F WCI  27
GRAND RAPIDS   LGT RAIN  33  29  85 NE7       30.19F FOG     WCI  27
KALAMAZOO      LGT RAIN  36  32  85 E5        30.16F FOG     WCI  32
MARSHALL       LGT RAIN  35  33  92 E6        30.16F WCI  30
MOUNT PLEASANT CLOUDY    33  21  60 SE5       30.22S WCI  28
MUSKEGON       LGT RAIN  34  30  85 E8        30.19F WCI  27
STURGIS        FOG       35  34  98 SE7       30.14F VSB 1   WCI  29
$$
MIZ016>042-162100-
NORTHERN LOWER MICHIGAN

CITY           SKY/WX    TMP DP  RH WIND       PRES   REMARKS
ALPENA         CLOUDY    39  19  44 SW6       30.19F WCI  35
BEAVER ISLAND  CLOUDY    34  27  75 SW8G16    30.17S WCI  27
BELLAIRE       CLOUDY    36  26  68 SW3       30.20F
CADILLAC       CLOUDY    32  29  89 CALM      30.16F
CHARLEVOIX     CLOUDY    36  26  66 S5        30.21F WCI  32
GAYLORD        CLOUDY    34  22  61 W6        30.16F HAZE    WCI  29
HOUGHTON LAKE  CLOUDY    32  25  75 CALM      30.19F
MANISTEE       CLOUDY    35  29  78 E3        30.18F
OSCODA         CLOUDY    34  25  70 SW8       30.20F WCI  27
PELLSTON       CLOUDY    36  21  54 W6        30.18F WCI  31
TRAVERSE CITY  CLOUDY    37  26  64 CALM      30.18F
LUDINGTON      LGT RAIN  34  31  88 E5        30.18F WCI  30
$$
MIZ007>008-015-162100-
EASTERN UPPER MICHIGAN

CITY           SKY/WX    TMP DP  RH WIND       PRES   REMARKS
KINROSS        CLOUDY    35  24  64 W10       30.15S WCI  27
MACKINAC ISLAN CLOUDY    33  29  85 SW10G17   30.16F WCI  25
NEWBERRY       CLOUDY    31  19  59 CALM      30.14F
S. S. MARIE    SUNNY     36  22  56 W5        30.15S WCI  32
$$
MIZ004>006-011>014-085-162100-
CENTRAL UPPER MICHIGAN

CITY           SKY/WX    TMP DP  RH WIND       PRES   REMARKS
MANISTIQUE     CLOUDY    29  23  77 SW3       30.16F
ESCANABA       CLOUDY    31  21  66 S6        30.16F WCI  25
SAWYER-GWINN   SUNNY     34  19  55 S8        30.11S WCI  27
$$
MIZ001>003-009>011-084-162100-
WESTERN UPPER MICHIGAN

CITY           SKY/WX    TMP DP  RH WIND       PRES   REMARKS
IRON MOUNTAIN  CLOUDY    35  14  42 E3        30.09F
HOUGHTON       SUNNY     34  22  61 W10       30.07F WCI  26
COPPER HARBOR    N/A     34  28  79 N15       30.10S WCI  24
IRONWOOD       SUNNY     37  20  50 CALM      30.08F
$$

ABBREVIATIONS USED IN REMARKS
   TC - TEMPERATURE IN CELSIUS
  WCI - WIND CHILL INDEX
   HX - HEAT INDEX
  VSB - VISIBILITY





USA.gov is the U.S. government's official web portal to all federal, state and local government web resources and services.